User: anonymous
Location: Unspecified
(0.0000°N, 0.0000°E)
Time: 10:40:57
(UTC+02:00)
Language:

ARIANE 5 R/B - Orbit

View from above orbital plane
View from above orbital plane
View from above satellite
View from above satellite

Ground track
Ground track

The orbit data is extracted from the following two-line orbital elements,

1 28886U 05041C   14209.14159568 -.00000247  00000-0 -16316-2 0  5841
2 28886 008.2278 039.9866 7189086 037.3975 092.1853 02.24317997 72040
Epoch (UTC): 28 July 2014 03:23:53
Eccentricity: 0.7189086
inclination: 8.2278°
perigee height: 551 km
apogee height: 35993 km
right ascension of ascending node: 39.9866°
argument of perigee: 37.3975°
revolutions per day: 2.24317997
mean anomaly at epoch: 92.1853°
orbit number at epoch: 7204

The dashed part of the orbit path shows where the satellite is in the earth's shadow,  

DLR